Weather History for Savannah Hunter, GA

Change the Weather History Date:

Monday, December 26, 2011

  Actual Average Record
Temperature  
Mean Temperature 54 °F -  
Max Temperature 60 °F 58 °F 67 °F (2012)
Min Temperature 48 °F 36 °F 24 °F (1999)
Degree Days  
Heating Degree Days 11    
Growing Degree Days 4 (Base 50)    
Moisture  
Dew Point 44 °F    
Average Humidity 78    
Maximum Humidity 100    
Minimum Humidity 34    
Precipitation  
Precipitation 0.00 in - - ()
Sea Level Pressure  
Sea Level Pressure 30.25 in    
Wind  
Wind Speed 5 mph (NE)    
Max Wind Speed 16 mph    
Max Gust Speed 21 mph    
Visibility 10 miles    
Events      
Averages and records for this station are not official NWS values.
T = Trace of Precipitation, MM = Missing Value Source: NWS Daily Summary

Daily Weather History Graph

Daily Weather History Graph

Search for Another Location

Airport:

Trip Planner

Search our weather history database for the weather conditions in past years. The results will help you decide how hot, cold, wet, or windy it might be!

Date:

Astronomy

Dec. 26, 2011 Rise Set
Actual Time 7:23 AM EST 5:27 PM EST
Civil Twilight 6:56 AM EST 5:54 PM EST
Nautical Twilight 6:25 AM EST 6:24 PM EST
Astronomical Twilight 5:55 AM EST 6:54 PM EST
Moon 8:48 AM EST (12/26) 7:46 PM EST (12/26)
Length of Visible Light 10h 57m
Length of Day
10h 03m
Waxing Crescent, 5% of the Moon is Illuminated
Dec 26
Waxing Crescent
Jan 1
First Quarter
Jan 9
Full
Jan 16
Last Quarter
Jan 23
New

Hourly Weather History & Observations

Time (EST) Temp. Dew Point Humidity Pressure Visibility Wind Dir Wind Speed Gust Speed Precip Events Conditions
12:55 AM 52.3 °F 52.3 °F 100% 30.21 in 10.0 mi WNW 3.5 mph - N/A   Overcast
1:41 AM 51.8 °F 51.8 °F 100% 30.21 in 10.0 mi WNW 3.5 mph - N/A   Overcast
1:55 AM 52.2 °F 52.2 °F 100% 30.21 in 10.0 mi WNW 3.5 mph - N/A   Scattered Clouds
2:55 AM 51.6 °F 51.6 °F 100% 30.21 in 10.0 mi Variable 3.5 mph - N/A   Clear
3:55 AM 50.9 °F 50.9 °F 100% 30.22 in 10.0 mi Calm Calm - N/A   Clear
4:55 AM 50.2 °F 50.2 °F 100% 30.22 in 10.0 mi NW 3.5 mph - N/A   Clear
5:55 AM 49.3 °F 49.3 °F 100% 30.22 in 10.0 mi Calm Calm - N/A   Clear
6:55 AM 48.6 °F 48.6 °F 100% 30.25 in 10.0 mi Calm Calm - N/A   Clear
7:55 AM 48.0 °F 48.0 °F 100% 30.27 in 10.0 mi NNE 3.5 mph - N/A   Partly Cloudy
8:55 AM 49.5 °F 48.9 °F 98% 30.30 in 10.0 mi NE 3.5 mph - N/A   Clear
9:55 AM 51.4 °F 45.0 °F 79% 30.33 in 10.0 mi NNE 5.8 mph - N/A   Clear
10:55 AM 52.9 °F 42.1 °F 67% 30.32 in 10.0 mi NE 9.2 mph 16.1 mph N/A   Clear
11:55 AM 56.7 °F 39.7 °F 53% 30.30 in 10.0 mi ENE 15.0 mph 20.7 mph N/A   Clear
12:55 PM 57.9 °F 33.6 °F 40% 30.27 in 10.0 mi ENE 16.1 mph 20.7 mph N/A   Clear
1:55 PM 59.2 °F 31.6 °F 35% 30.26 in 10.0 mi East 15.0 mph - N/A   Clear
2:55 PM 60.1 °F 31.5 °F 34% 30.26 in 10.0 mi ENE 10.4 mph 18.4 mph N/A   Partly Cloudy
3:55 PM 58.8 °F 31.6 °F 36% 30.27 in 10.0 mi East 11.5 mph - N/A   Clear
4:55 PM 54.7 °F 34.9 °F 47% 30.27 in 10.0 mi East 8.1 mph - N/A   Clear
5:55 PM 51.1 °F 36.1 °F 57% 30.27 in 10.0 mi ENE 6.9 mph - N/A   Clear
6:55 PM 50.4 °F 40.1 °F 68% 30.27 in 10.0 mi ENE 6.9 mph - N/A   Clear
7:55 PM 49.1 °F 42.1 °F 77% 30.25 in 10.0 mi NE 5.8 mph - N/A   Scattered Clouds
8:55 PM 50.4 °F 44.6 °F 81% 30.25 in 10.0 mi NE 5.8 mph - N/A   Mostly Cloudy
9:55 PM 50.9 °F 46.6 °F 85% 30.21 in 10.0 mi ENE 5.8 mph - N/A   Overcast
10:55 PM 51.8 °F 50.0 °F 94% 30.16 in 10.0 mi Variable 3.5 mph - N/A   Overcast
11:55 PM 51.8 °F 50.0 °F 94% 30.16 in 10.0 mi NE 3.5 mph - N/A   Overcast